Weather History for Kirksville, MO

Change the Weather History Date:

Monday, January 28, 2013

  Actual Average Record
Temperature  
Mean Temperature 55 °F 26 °F  
Max Temperature 63 °F 36 °F 64 °F (2008)
Min Temperature 46 °F 17 °F -14 °F (1977)
Degree Days  
Heating Degree Days 10 39  
Month to date heating degree days 1029 1092  
Since 1 July heating degree days 3271 3435  
Cooling Degree Days 0 0  
Month to date cooling degree days 0 0  
Year to date cooling degree days 0 0  
Growing Degree Days 4 (Base 50)    
Moisture  
Dew Point 51 °F    
Average Humidity 89    
Maximum Humidity 100    
Minimum Humidity 78    
Precipitation  
Precipitation 0.05 in 0.06 in 1.13 in (2006)
Month to date precipitation 0.60 1.08  
Year to date precipitation 0.60 1.08  
Sea Level Pressure  
Sea Level Pressure 29.84 in    
Wind  
Wind Speed 8 mph (SSE)    
Max Wind Speed 18 mph    
Max Gust Speed 26 mph    
Visibility 4 miles    
Events Fog , Rain    
T = Trace of Precipitation, MM = Missing Value Source: NWS Daily Summary

Daily Weather History Graph

Daily Weather History Graph

Search for Another Location

Airport:

Trip Planner

Search our weather history database for the weather conditions in past years. The results will help you decide how hot, cold, wet, or windy it might be!

Date:

Astronomy

Jan. 28, 2013 Rise Set
Actual Time 7:22 AM CST 5:24 PM CST
Civil Twilight 6:53 AM CST 5:53 PM CST
Nautical Twilight 6:20 AM CST 6:26 PM CST
Astronomical Twilight 5:48 AM CST 6:58 PM CST
Moon 7:20 PM CST 7:48 AM CST
Length of Visible Light 11h 00m
Length of Day
10h 02m
Full, 98% of the Moon is Illuminated
Jan 28
Full
Feb 3
Last Quarter
Feb 10
New
Feb 17
First Quarter
Feb 25
Full

Hourly Weather History & Observations

Time (CST) Temp. Windchill Dew Point Humidity Pressure Visibility Wind Dir Wind Speed Gust Speed Precip Events Conditions
12:55 AM 53.1 °F - 50.0 °F 89% 29.85 in 10.0 mi SSW 17.3 mph 21.9 mph N/A   Overcast
1:55 AM 54.0 °F - 51.1 °F 90% 29.85 in 9.0 mi SSW 12.7 mph 20.7 mph 0.01 in   Overcast
2:51 AM 51.8 °F - 51.8 °F 100% 29.84 in 3.0 mi SSW 6.9 mph - 0.01 in Rain Light Rain
2:55 AM 52.0 °F - 51.1 °F 97% 29.86 in 3.0 mi SSW 6.9 mph - 0.01 in Rain Light Rain
3:30 AM 53.6 °F - 51.8 °F 94% 29.84 in 2.5 mi SW 9.2 mph - 0.02 in Rain Light Rain
3:38 AM 53.6 °F - 51.8 °F 94% 29.84 in 3.0 mi SW 8.1 mph - 0.02 in Rain Light Rain
3:47 AM 53.6 °F - 51.8 °F 94% 29.84 in 2.5 mi SW 8.1 mph - 0.02 in   Overcast
3:55 AM 52.0 °F - 52.0 °F 100% 29.86 in 2.5 mi SW 8.1 mph - 0.02 in   Overcast
4:11 AM 51.8 °F - 51.8 °F 100% 29.85 in 1.8 mi SW 6.9 mph - N/A   Overcast
4:40 AM 51.8 °F - 51.8 °F 100% 29.85 in 0.5 mi SSW 3.5 mph - N/A Fog Fog
4:55 AM 52.0 °F - 52.0 °F 100% 29.88 in 0.5 mi Calm Calm - 0.01 in Fog , Rain Light Rain
5:43 AM 50.0 °F - 50.0 °F 100% 29.87 in 1.2 mi NW 3.5 mph - 0.00 in   Overcast
5:46 AM 50.0 °F - 50.0 °F 100% 29.87 in 3.0 mi NW 4.6 mph - 0.00 in   Overcast
5:55 AM 48.9 °F - 48.9 °F 100% 29.89 in 2.5 mi NW 3.5 mph - 0.00 in   Overcast
6:13 AM 48.2 °F - 48.2 °F 100% 29.87 in 1.2 mi Calm Calm - N/A   Overcast
6:21 AM 48.2 °F - 48.2 °F 100% 29.87 in 1.2 mi NW 3.5 mph - N/A   Overcast
6:34 AM 48.2 °F - 48.2 °F 100% 29.88 in 0.5 mi Calm Calm - N/A Fog Fog
6:55 AM 48.0 °F - 48.0 °F 100% 29.91 in 0.2 mi Calm Calm - N/A Fog Fog
7:39 AM 46.4 °F 45.2 °F 46.4 °F 100% 29.89 in 0.5 mi South 3.5 mph - N/A Fog Fog
7:55 AM 46.0 °F 44.8 °F 46.0 °F 100% 29.92 in 0.2 mi SE 3.5 mph - N/A Fog Fog
8:55 AM 46.9 °F - 46.9 °F 100% 29.93 in 0.2 mi NE 4.6 mph - N/A Fog Fog
9:55 AM 48.9 °F - 48.0 °F 97% 29.92 in 0.2 mi East 3.5 mph - N/A Fog Fog
10:55 AM 50.0 °F - 48.9 °F 96% 29.93 in 0.2 mi East 5.8 mph - N/A Fog Fog
11:55 AM 51.1 °F - 51.1 °F 100% 29.90 in 0.5 mi East 4.6 mph - N/A Fog Fog
12:37 PM 51.8 °F - 51.8 °F 100% 29.86 in 0.8 mi East 3.5 mph - N/A   Overcast
12:45 PM 51.8 °F - 51.8 °F 100% 29.86 in 1.0 mi East 4.6 mph - N/A   Overcast
12:55 PM 52.0 °F - 52.0 °F 100% 29.87 in 1.2 mi East 6.9 mph - N/A   Overcast
1:43 PM 53.6 °F - 53.6 °F 100% 29.83 in 2.0 mi East 6.9 mph - N/A   Overcast
1:55 PM 54.0 °F - 53.1 °F 97% 29.83 in 2.5 mi East 6.9 mph - N/A   Overcast
2:22 PM 55.4 °F - 53.6 °F 94% 29.81 in 3.0 mi East 8.1 mph - N/A   Overcast
2:55 PM 57.9 °F - 55.0 °F 90% 29.82 in 4.0 mi East 4.6 mph - N/A   Overcast
3:55 PM 60.1 °F - 55.9 °F 86% 29.80 in 6.0 mi ESE 8.1 mph - N/A   Mostly Cloudy
4:09 PM 60.8 °F - 55.4 °F 82% 29.79 in 6.0 mi ESE 8.1 mph - N/A   Scattered Clouds
4:55 PM 57.0 °F - 55.0 °F 93% 29.79 in 6.0 mi East 6.9 mph - N/A   Clear
5:55 PM 55.0 °F - 54.0 °F 96% 29.79 in 5.0 mi ESE 8.1 mph - N/A   Mostly Cloudy
6:55 PM 55.9 °F - 53.1 °F 90% 29.78 in 10.0 mi SSE 10.4 mph - N/A   Mostly Cloudy
7:55 PM 53.1 °F - 52.0 °F 96% 29.76 in 7.0 mi SSE 9.2 mph - N/A   Clear
8:55 PM 57.0 °F - 54.0 °F 89% 29.75 in 9.0 mi SSE 9.2 mph - N/A   Overcast
9:55 PM 62.1 °F - 55.0 °F 78% 29.73 in 10.0 mi South 12.7 mph - N/A   Mostly Cloudy
10:55 PM 63.0 °F - 55.0 °F 75% 29.71 in 10.0 mi South 16.1 mph 25.3 mph N/A   Partly Cloudy
11:55 PM 62.1 °F - 55.0 °F 78% 29.71 in 10.0 mi SSW 17.3 mph 24.2 mph N/A   Clear